sat.trackr.live / text

‹ back to catalog

ONEWEB-0107

NORAD 48048 · 2021-025G

PAYLOAD ACTIVE UNKNOWN

§ Identity

Operator
Country
UK
Launch date
2021-03-25
Launch site
VOSTO
Launch vehicle
Mass (kg)
RCS (m²)

Purposes: comms

External: N2YO · Heavens-Above · Gunter

§ Orbital elements

Epoch: 2026-09-18T21:06:06.909696Z

Period
109.63 min
Inclination
87.8928°
Eccentricity
0.0001713
Mean motion
13.13470413 rev/d
Perigee alt
1,208.5 km
Apogee alt
1,211.1 km
Semi-major
7,587.9 km
B*
6.2929e-4
RAAN
301.5752°
Arg perigee
99.2789°
Mean anomaly
260.8534°
Rev number
26,582

§ Raw data

ONEWEB-01071 48048U 21025G   26261.87924664  .00000243  00000+0  62929-3 0  99962 48048  87.8928 301.5752 0001713  99.2789 260.8534 13.13470413265825

JSON: /api/v1/satellites/48048 · /tle

For live sub-satellite position, see the globe view (requires WebGL).

§ Visibility from observer

Set your observer location to see the next 7 days of passes ≥ 10°. The values pass through the URL so the page stays shareable.

No JS? Fill the form by hand. The geolocation button needs JavaScript.